Lapse_Rate
5.1 5.0 4.8 4.7 4.5 4.4 4.3 4.3 4.3 4.3 4.3 4.4 4.4 4.5 4.7 4.8 4.8 4.9 4.9 5.0 5.0 5.0 5.0 5.0 5.0 5.0 4.9 4.9 4.8 4.8 4.7 4.9 5.0
5.0 4.9 4.9 4.7 4.5 4.3 4.3 4.3 4.3 4.4 4.4 4.4 4.5 4.6 4.7 4.8 4.8 4.9 4.9 5.0 5.0 5.1 5.2 5.2 5.1 5.1 4.9 4.9 4.8 4.8 4.9 4.9 5.0
5.0 5.0 4.8 4.7 4.5 4.3 4.2 4.2 4.3 4.4 4.5 4.6 4.7 4.7 4.8 5.0 5.0 5.1 5.1 5.1 5.1 5.1 5.1 5.1 5.0 4.9 4.9 4.9 4.9 4.8 4.8 4.8 4.8
4.9 4.9 4.7 4.6 4.5 4.4 4.3 4.3 4.4 4.4 4.5 4.6 4.8 4.8 4.9 5.0 5.1 5.1 5.2 5.2 5.1 5.1 5.1 5.1 5.0 5.1 5.1 5.0 4.9 4.9 4.9 4.7 4.7
4.8 4.7 4.7 4.6 4.5 4.5 4.4 4.4 4.4 4.5 4.6 4.7 4.7 4.8 5.0 5.2 5.2 5.3 5.2 5.2 5.2 5.3 5.3 5.2 5.2 5.2 5.1 5.1 5.1 5.0 4.9 4.9 4.9
4.7 4.7 4.7 4.6 4.6 4.6 4.6 4.6 4.6 4.7 4.7 4.8 4.9 5.1 5.2 5.3 5.3 5.3 5.4 5.4 5.4 5.4 5.3 5.3 5.3 5.2 5.3 5.2 5.1 5.1 5.0 4.9 5.1
4.6 4.7 4.7 4.7 4.7 4.7 4.7 4.7 4.8 4.8 4.9 5.0 5.1 5.2 5.3 5.3 5.4 5.4 5.4 5.5 5.4 5.4 5.3 5.3 5.3 5.3 5.3 5.1 4.9 5.0 4.9 4.9 5.0
4.8 4.8 4.9 4.9 4.9 4.9 4.9 4.9 5.0 5.0 5.0 5.0 5.1 5.3 5.4 5.4 5.4 5.4 5.5 5.4 5.4 5.4 5.4 5.4 5.4 5.3 5.2 5.2 5.1 5.1 5.0 4.8 4.9
5.0 5.0 5.0 5.0 5.1 5.1 5.2 5.1 5.2 5.2 5.2 5.2 5.1 5.2 5.2 5.3 5.4 5.4 5.4 5.4 5.5 5.6 5.5 5.5 5.4 4.9 5.1 5.0 5.1 5.0 4.8 4.8 4.8
5.2 5.2 5.2 5.3 5.3 5.4 5.4 5.4 5.4 5.3 5.3 5.4 5.4 5.4 5.4 5.4 5.4 5.4 5.5 5.6 5.7 5.7 5.7 5.7 5.5 5.4 5.5 5.4 5.2 4.9 5.0 4.9 4.9
5.4 5.5 5.5 5.5 5.5 5.5 5.6 5.6 5.6 5.5 5.4 5.4 5.5 5.5 5.5 5.6 5.6 5.6 5.6 5.7 5.8 5.9 6.0 5.9 5.7 5.7 5.5 5.6 5.6 5.3 5.1 5.0 4.9
5.7 5.6 5.6 5.6 5.7 5.8 5.8 5.7 5.8 5.7 5.7 5.7 5.7 5.7 5.7 5.7 5.7 5.7 5.7 5.8 5.8 5.9 5.9 6.1 6.0 5.9 6.0 5.9 5.6 6.0 5.7 5.2 5.2
5.7 5.6 5.5 5.6 5.7 5.8 5.8 5.9 6.0 5.9 5.9 5.9 5.8 5.8 5.7 5.8 5.9 5.9 5.9 5.9 6.0 6.0 6.1 6.3 6.2 6.1 6.0 5.9 5.4 5.5 5.5 5.5 5.6
5.6 5.4 5.4 5.7 5.7 5.8 5.9 5.9 5.9 5.8 6.0 6.0 5.8 5.9 5.9 5.9 5.9 5.9 6.0 6.0 6.1 6.1 6.3 6.3 6.3 6.2 6.1 6.0 5.7 5.7 5.4 5.2 5.3
6.0 6.1 5.8 5.9 5.8 5.7 5.7 5.6 5.8 5.8 5.8 5.9 5.8 5.9 5.9 6.0 6.0 6.0 6.1 6.1 6.1 6.2 6.2 6.2 6.2 6.2 6.0 5.9 5.8 5.7 5.4 5.3 5.3
6.0 6.1 6.1 6.1 5.9 5.7 5.7 5.8 5.7 5.7 5.8 5.7 5.7 6.0 6.0 6.0 6.2 6.1 6.0 6.1 6.1 6.2 6.2 6.2 6.2 6.3 6.2 6.0 6.0 5.9 5.6 5.4 5.3
5.5 5.9 5.8 5.9 5.7 5.6 5.6 5.7 5.6 5.6 5.6 5.5 5.6 5.9 5.7 6.1 6.3 6.3 6.2 6.2 6.1 6.2 6.3 6.2 6.2 6.2 6.1 6.0 5.9 5.9 5.5 5.5 5.6
5.3 5.5 5.6 5.7 5.9 5.7 5.8 5.5 5.6 5.6 5.4 5.5 5.7 5.8 5.8 5.9 6.4 6.4 6.3 6.5 6.4 6.3 6.3 6.3 6.2 6.3 6.2 5.9 6.0 5.8 5.6 5.4 5.3
5.3 5.1 5.2 5.4 5.4 5.6 5.5 5.6 5.4 5.1 5.3 5.1 5.5 5.3 5.5 5.6 5.9 6.5 6.3 6.5 6.7 6.7 6.6 6.5 6.3 6.2 6.1 5.9 5.7 5.8 5.5 5.2 5.1
5.7 5.7 5.2 5.3 5.4 5.4 4.7 5.4 5.0 5.0 5.0 5.0 5.2 4.9 5.2 5.0 5.5 6.0 6.3 6.3 6.4 6.3 6.3 6.3 6.1 6.0 5.8 5.7 5.7 5.5 5.1 5.3 4.6
Wind_Speed
21 18 17 18 18 16 13 13 13 13 12 12 10 9 6 2 10 11 10 12 10 10 10 10 10 10 10 10 10 10 11 11 11
20 18 17 18 16 14 13 14 12 10 11 10 9 8 4 9 9 9 10 10 9 10 9 10 10 10 9 9 9 9 10 10 11
19 18 18 17 16 14 13 12 11 9 12 10 8 6 2 6 8 7 9 7 8 9 8 9 9 9 9 9 9 9 9 10 11
19 19 18 17 16 15 13 12 10 9 10 9 7 5 1 3 6 5 6 5 7 7 7 7 7 8 8 8 8 8 9 9 9
16 17 16 16 14 14 12 12 10 9 8 7 5 4 3 3 2 3 7 2 4 4 4 4 5 6 7 6 7 7 7 8 8
16 13 14 13 12 12 11 10 9 7 6 4 4 4 0 1 1 2 5 1 1 1 1 1 3 4 4 4 4 5 5 5 6
11 12 11 10 10 9 9 8 7 7 5 6 5 5 2 1 1 1 3 3 3 3 3 2 1 1 0 1 1 1 2 3 3
11 12 11 10 9 9 9 8 7 5 4 4 4 3 3 1 1 2 3 5 5 6 6 7 4 4 4 4 4 2 2 1 1
10 9 9 8 9 7 6 6 5 5 6 4 4 3 3 3 2 3 3 4 7 8 9 9 6 7 8 8 7 6 5 5 4
10 9 9 8 7 6 6 6 6 6 5 4 5 4 4 3 2 3 4 6 8 9 10 11 9 5 5 5 7 6 7 9 9
10 9 8 8 8 8 7 6 5 4 5 4 4 4 4 4 3 3 3 6 8 9 10 11 12 5 6 5 4 3 4 5 4
10 7 6 9 10 10 8 7 6 5 5 5 5 5 5 5 5 5 6 5 8 9 8 10 12 4 6 9 9 7 5 5 7
12 7 6 9 9 9 7 6 6 6 5 5 5 4 5 6 7 6 7 6 8 7 6 6 7 7 7 10 9 8 5 4 6
11 8 8 9 9 7 6 6 6 6 6 5 4 5 4 5 6 8 7 9 10 10 3 4 4 3 6 10 10 7 5 4 6
13 10 9 10 6 6 6 8 7 6 5 4 5 5 4 4 4 6 8 7 6 6 6 3 8 8 9 11 9 7 5 6 6
14 9 8 10 9 10 10 9 9 7 6 5 5 4 4 4 3 3 2 3 5 4 2 1 6 10 16 12 8 5 5 5 6
13 10 9 9 9 11 10 10 8 7 7 5 2 4 3 3 1 1 2 3 3 4 3 3 3 4 4 6 8 6 6 6 7
12 10 8 8 8 9 10 11 12 7 3 4 4 2 3 2 3 1 1 1 1 2 3 4 4 4 4 2 6 7 7 9 9
11 8 10 5 2 5 2 3 1 3 3 1 1 3 3 4 4 3 2 1 1 2 2 3 4 4 4 5 6 7 9 11 8
10 10 7 7 6 6 6 5 6 3 2 2 2 3 2 5 7 8 4 3 3 2 2 2 2 2 1 2 4 8 8 11 5
Wind_Direction
136 132 130 120 117 121 119 113 107 111 111 102 99 94 94 94 80 84 74 74 78 78 75 72 67 63 58 56 55 54 53 52 51
134 129 126 125 128 128 126 112 112 120 121 109 104 98 74 87 85 84 82 78 77 76 73 70 67 63 61 59 56 56 57 56 53
140 136 138 139 138 138 133 122 113 118 134 124 113 112 121 99 87 86 87 83 80 75 70 68 66 64 61 60 60 60 59 56 56
141 142 144 143 144 144 139 130 120 113 134 130 125 121 32 74 84 88 95 73 75 75 72 72 72 70 64 61 59 58 57 56 53
140 140 147 150 143 141 139 136 135 128 127 127 138 152 194 93 122 109 88 61 75 79 78 70 69 66 62 56 53 51 55 56 55
152 139 140 134 139 142 145 144 138 137 127 127 156 217 175 122 117 156 127 214 149 114 88 52 55 60 57 52 57 54 51 53 56
147 140 137 136 138 135 141 144 148 191 179 165 192 216 195 233 49 144 172 246 255 237 232 245 242 99 27 321 4 51 44 51 59
160 152 160 159 172 168 174 171 196 191 196 194 199 207 229 226 211 135 209 244 253 263 255 245 230 232 236 245 251 256 274 291 292
167 170 165 176 184 179 187 195 191 199 199 204 219 202 223 228 217 158 216 249 257 256 265 268 253 246 242 246 253 258 259 257 252
173 174 174 185 181 189 184 195 184 201 212 212 229 233 233 245 244 265 216 242 250 255 262 273 269 260 248 248 255 260 254 260 259
183 179 182 190 192 191 197 194 198 206 215 224 223 231 231 232 224 260 262 247 256 264 265 267 274 247 246 202 162 123 89 47 316
183 188 188 193 193 190 191 194 203 213 210 223 218 221 220 230 252 258 277 269 256 254 266 281 296 277 217 169 154 126 91 54 38
190 195 202 199 195 199 201 199 202 209 207 212 199 217 234 258 255 253 260 269 283 246 252 285 293 277 181 168 145 124 100 69 46
205 207 210 201 210 205 209 209 213 205 203 210 225 236 253 254 261 275 291 288 284 285 260 292 295 237 190 172 135 120 106 71 40
207 211 215 203 216 222 211 216 209 219 221 222 242 242 256 260 284 298 299 308 297 284 280 250 65 71 120 128 129 119 94 47 15
217 221 220 213 215 214 214 211 211 216 224 239 238 248 241 271 283 298 323 36 23 28 6 137 143 92 77 85 93 84 63 33 3
232 228 222 217 226 221 215 212 206 219 205 234 257 279 240 145 55 53 28 29 14 52 66 101 116 133 101 99 85 47 25 353 341
216 237 233 243 238 234 220 219 219 216 191 232 269 266 260 308 152 185 326 313 27 69 97 109 111 107 98 100 65 30 358 340 328
181 184 218 216 264 273 185 82 3 23 251 189 311 275 291 260 276 185 208 257 216 186 152 151 127 124 107 68 44 17 13 342 333
162 161 173 122 113 83 32 67 48 48 30 11 9 245 220 255 259 273 222 230 227 236 239 218 188 160 165 115 53 27 24 11 327